Location: Indian Hills
(32.9760°N, 85.9450°W)
Time: 08:51:26
(UTC+00:00)

CZ-4B R/B - Pass Details

Date: 09 December 2019
Orbit: 809 x 881 km, 99.1° (Epoch: 28 January)

Event Time Altitude Azimuth Distance (km) Brightness Sun altitude
Rises 10:48:04 0° 20° (NNE) 3,454 6.5 -21.8°
Reaches altitude 10° 10:50:32 10° 27° (NNE) 2,521 5.8 -21.3°
Maximum altitude 10:55:56 47° 100° (E) 1,148 4.3 -20.2°
Drops below altitude 10° 11:01:20 10° 174° (S) 2,528 5.9 -19.1°
Sets 11:03:49 0° 179° (S) 3,464 6.6 -18.6°
